Weather reports worldwide

Advertisment
Shoreham Airport, United Kingdom (3876): temperature & dewpoint: 13.04.2019 00:00:00 - 19.04.2019 00:00:00 (BST)Shoreham Airport, United Kingdom (3876): wind speed: 13.04.2019 00:00:00 - 19.04.2019 00:00:00 (BST)Shoreham Airport, United Kingdom (3876): wind direction: 13.04.2019 00:00:00 - 19.04.2019 00:00:00 (BST)Shoreham Airport, United Kingdom (3876): reduced air pressure: 13.04.2019 00:00:00 - 19.04.2019 00:00:00 (BST)Shoreham Airport, United Kingdom (3876): visibility: 13.04.2019 00:00:00 - 19.04.2019 00:00:00 (BST)Shoreham Airport, United Kingdom (3876): precipitation: 13.04.2019 00:00:00 - 19.04.2019 00:00:00 (BST)
Date & Time tt [°C] td [°C] ff [km/h] ff [kn] dd ppp [hPa] vv [km] rr [mm]
19.04.2019 00:00:00 14,0 5,8 22 12 NNE 1024,4 - 0,0
18.04.2019 23:00:00 14,5 6,0 24 13 NE 1024,0 - 0,0
18.04.2019 22:00:00 15,0 6,3 22 12 NE 1023,7 - 0,0
18.04.2019 21:00:00 15,8 6,6 22 12 NNE 1023,3 - 0,0
18.04.2019 20:00:00 16,3 7,7 18 10 NNE 1022,8 10 0,0
18.04.2019 19:00:00 18,3 8,1 15 8 NE 1022,2 10 0,0
18.04.2019 18:00:00 19,8 6,9 21 11 ENE 1021,6 10 0,0
18.04.2019 17:00:00 20,9 6,9 22 12 E 1021,3 10 0,0
18.04.2019 16:00:00 21,1 8,2 18 10 E 1021,0 10 0,0
18.04.2019 15:00:00 21,3 9,9 18 10 ESE 1021,1 10 0,0
18.04.2019 14:00:00 20,4 9,0 21 11 E 1021,4 10 0,0
18.04.2019 13:00:00 19,4 10,2 15 8 ESE 1021,5 10 0,0
18.04.2019 12:00:00 19,3 10,0 22 12 ENE 1021,6 10 0,0
18.04.2019 11:00:00 17,4 9,8 21 11 E 1021,9 9 0,0
18.04.2019 10:00:00 16,4 9,7 16 9 ENE 1021,6 7 0,0
18.04.2019 09:00:00 15,3 9,3 13 7 ENE 1021,5 6 0,0
18.04.2019 08:00:00 13,1 8,8 11 6 ENE 1021,2 5 0,0
18.04.2019 07:00:00 11,4 8,3 13 7 ENE 1021,0 - 0,0
18.04.2019 06:00:00 9,2 7,3 13 7 NNW 1021,0 - 0,0
18.04.2019 05:00:00 10,7 8,0 15 8 NE 1020,6 - 0,0
18.04.2019 04:00:00 10,7 8,0 13 7 NE 1020,9 - 0,0
18.04.2019 03:00:00 11,0 8,4 15 8 ENE 1021,0 - 0,0
18.04.2019 02:00:00 10,9 8,3 16 9 ENE 1021,0 - 0,0
18.04.2019 01:00:00 10,7 8,2 16 9 ENE 1020,9 - 0,0
18.04.2019 00:00:00 10,5 8,2 15 8 ENE 1020,8 - 0,0
17.04.2019 23:00:00 10,5 7,9 16 9 ENE 1020,5 - 0,0
17.04.2019 22:00:00 10,9 7,6 13 7 ENE 1020,2 - 0,0
17.04.2019 21:00:00 12,0 7,8 15 8 E 1020,1 - 0,0
17.04.2019 20:00:00 12,4 7,3 15 8 E 1019,5 10 0,0
17.04.2019 19:00:00 12,4 7,6 16 9 ESE 1019,2 10 0,0
17.04.2019 18:00:00 11,9 8,1 9 5 SE 1019,4 6 0,0
17.04.2019 17:00:00 11,3 8,7 11 6 SE 1019,4 3,2 0,0
17.04.2019 16:00:00 11,3 9,1 15 8 SE 1019,5 2,8 0,0
17.04.2019 15:00:00 11,2 9,0 13 7 ESE 1019,7 2,2 0,0
17.04.2019 14:00:00 11,0 9,1 9 5 ESE 1020,0 1,4 0,0
17.04.2019 13:00:00 10,7 9,4 9 5 ESE 1020,1 0,9 0,0
17.04.2019 12:00:00 10,7 9,8 13 7 ESE 1020,1 0,9 0,0
17.04.2019 11:00:00 12,2 8,6 9 5 ESE 1020,0 3,2 0,0
17.04.2019 10:00:00 11,9 8,7 5 3 SSE 1019,8 2,8 0,0
17.04.2019 09:00:00 9,6 9,0 5 3 N 1019,2 2,2 0,0
17.04.2019 08:00:00 7,3 7,0 9 5 N 1019,1 1,2 0,0
17.04.2019 07:00:00 7,3 7,0 15 8 N 1018,7 - 0,0
17.04.2019 06:00:00 6,7 6,1 13 7 N 1018,3 - 0,0
17.04.2019 05:00:00 6,6 6,2 13 7 N 1018,0 - 0,0
17.04.2019 04:00:00 4,1 3,4 8 4 N 1017,9 - 0,0
17.04.2019 03:00:00 5,6 5,0 5 3 NNW 1017,9 - 0,0
17.04.2019 02:00:00 6,9 6,1 4 2 NNW 1018,1 - 0,0
17.04.2019 01:00:00 9,3 7,6 5 3 WNW 1018,0 - 0,0
17.04.2019 00:00:00 9,7 7,3 2 1 NW 1017,8 - 0,0
16.04.2019 23:00:00 9,9 7,6 9 5 WSW 1017,7 - 0,0
16.04.2019 22:00:00 9,4 6,7 8 4 SW 1017,4 - 0,0
16.04.2019 21:00:00 11,1 7,7 8 4 W 1017,2 - 0,0
16.04.2019 20:00:00 11,1 8,4 11 6 WSW 1016,5 3,0 0,0
16.04.2019 19:00:00 12,5 8,6 15 8 WSW 1016,1 3,5 0,0
16.04.2019 18:00:00 12,9 9,3 15 8 SW 1015,6 3,8 0,0
16.04.2019 17:00:00 14,7 7,4 8 4 NW 1015,3 4,2 0,0
16.04.2019 16:00:00 14,6 7,6 9 5 WNW 1015,2 4,0 0,0
16.04.2019 15:00:00 14,5 7,5 11 6 NW 1015,1 4,5 0,0
16.04.2019 14:00:00 14,6 8,5 11 6 NW 1014,9 4,0 0,0
16.04.2019 13:00:00 13,4 7,7 8 4 N 1014,5 4,0 0,0
16.04.2019 12:00:00 12,3 7,3 9 5 S 1014,6 4,5 0,0
16.04.2019 11:00:00 11,9 7,1 8 4 N 1014,4 4,5 0,0
16.04.2019 10:00:00 10,8 7,0 11 6 N 1014,2 4,2 0,0
16.04.2019 09:00:00 9,8 6,8 13 7 N 1013,8 4,5 0,0
16.04.2019 08:00:00 8,6 5,8 13 7 N 1013,3 4,0 0,0
16.04.2019 07:00:00 7,6 5,1 13 7 N 1013,0 - 0,0
16.04.2019 06:00:00 7,8 4,7 16 9 N 1012,4 - 0,0
16.04.2019 05:00:00 7,6 4,6 15 8 N 1012,3 - 0,0
16.04.2019 04:00:00 7,7 4,5 15 8 N 1012,6 - 0,0
16.04.2019 03:00:00 7,8 4,3 15 8 N 1012,7 - 0,0
16.04.2019 02:00:00 8,5 4,3 11 6 N 1013,1 - 0,0
16.04.2019 01:00:00 9,2 4,3 11 6 N 1013,7 - 0,0
16.04.2019 00:00:00 8,9 4,2 11 6 N 1014,0 - 0,0
15.04.2019 23:00:00 9,7 3,9 9 5 NE 1014,4 - 0,0
15.04.2019 22:00:00 9,8 3,8 13 7 NE 1014,6 - 0,0
15.04.2019 21:00:00 10,4 3,6 15 8 NE 1014,5 - 0,0
15.04.2019 20:00:00 10,9 2,8 18 10 ENE 1014,4 - 0,0
15.04.2019 19:00:00 11,7 2,4 26 14 E 1014,7 10 0,0
15.04.2019 18:00:00 12,5 2,4 28 15 E 1015,0 10 0,0
15.04.2019 17:00:00 12,5 1,8 22 12 E 1015,6 10 0,0
15.04.2019 16:00:00 12,4 2,4 28 15 E 1016,3 10 0,0
15.04.2019 15:00:00 12,2 3,8 28 15 ESE 1017,2 10 0,0
15.04.2019 14:00:00 11,6 3,4 28 15 ESE 1018,3 10 0,0
15.04.2019 13:00:00 12,0 5,4 26 14 ESE 1019,0 9 0,0
15.04.2019 12:00:00 10,2 4,9 28 15 ESE 1020,0 7 0,0
15.04.2019 11:00:00 9,9 5,4 29 16 ESE 1020,9 6 0,0
15.04.2019 10:00:00 9,5 5,5 28 15 ESE 1021,5 5 0,0
15.04.2019 09:00:00 8,9 4,6 28 15 ESE 1021,7 6 0,0
15.04.2019 08:00:00 8,4 4,0 29 16 ESE 1021,9 6 0,0
15.04.2019 07:00:00 7,1 2,9 13 7 E 1022,4 - 0,0
15.04.2019 06:00:00 7,3 2,6 15 8 E 1022,7 - 0,0
15.04.2019 05:00:00 6,2 2,1 9 5 E 1022,8 - 0,0
15.04.2019 04:00:00 5,1 1,6 9 5 ENE 1023,3 - 0,0
15.04.2019 03:00:00 4,3 1,2 11 6 NE 1023,9 - 0,0
15.04.2019 02:00:00 7,2 1,5 21 11 ESE 1024,4 - 0,0
15.04.2019 01:00:00 7,1 0,9 26 14 ESE 1024,8 - 0,0
15.04.2019 00:00:00 6,8 1,7 18 10 E 1024,8 - 0,0
14.04.2019 23:00:00 4,3 1,2 11 6 NE 1025,2 - 0,0
14.04.2019 22:00:00 5,3 1,5 15 8 ENE 1025,2 - 0,0
14.04.2019 21:00:00 4,9 1,0 13 7 NE 1024,8 - 0,0
14.04.2019 20:00:00 6,2 0,3 21 11 E 1024,8 - 0,0
14.04.2019 19:00:00 7,5 -1,7 22 12 E 1024,1 10 0,0
14.04.2019 18:00:00 8,7 1,3 21 11 ESE 1024,1 10 0,0
14.04.2019 17:00:00 8,2 1,5 21 11 ESE 1024,2 10 0,0
14.04.2019 16:00:00 8,4 1,6 22 12 SE 1024,4 10 0,0
14.04.2019 15:00:00 8,9 1,9 21 11 SE 1024,9 10 0,0
14.04.2019 14:00:00 8,5 0,1 24 13 ESE 1023,9 10 0,0
14.04.2019 13:00:00 8,2 0,5 22 12 SE 1024,4 10 0,0
14.04.2019 12:00:00 8,6 -0,4 21 11 ESE 1025,1 10 0,0
14.04.2019 11:00:00 7,9 -0,5 22 12 E 1025,2 10 0,0
14.04.2019 10:00:00 7,1 0,7 15 8 E 1025,1 10 0,0
14.04.2019 09:00:00 4,2 1,6 11 6 N 1024,9 10 0,0
14.04.2019 08:00:00 1,6 -0,4 18 10 NNW 1024,8 - 0,0
14.04.2019 07:00:00 -1,2 -2,5 15 8 N 1024,8 - 0,0
14.04.2019 06:00:00 -1,0 -2,4 13 7 NNW 1024,6 - 0,0
14.04.2019 05:00:00 -0,5 -2,4 11 6 NNW 1024,7 - 0,0
14.04.2019 04:00:00 2,1 -1,0 18 10 NNE 1024,8 - 0,0
14.04.2019 03:00:00 2,1 -0,9 18 10 NNE 1025,0 - 0,0
14.04.2019 02:00:00 0,5 -1,3 15 8 N 1025,1 - 0,0
14.04.2019 01:00:00 0,0 -2,2 9 5 N 1025,6 - 0,0
14.04.2019 00:00:00 2,0 -1,1 11 6 NE 1025,9 - 0,0
13.04.2019 23:00:00 2,3 -1,2 11 6 NE 1025,7 - 0,0
13.04.2019 22:00:00 2,9 -1,6 15 8 NE 1025,8 - 0,0
13.04.2019 21:00:00 4,1 -1,5 15 8 NE 1026,0 - 0,0
13.04.2019 20:00:00 5,3 -1,7 16 9 NE 1025,6 10 0,0
13.04.2019 19:00:00 6,9 0,9 9 5 ESE 1025,6 10 0,0
13.04.2019 18:00:00 7,3 1,7 8 4 SSE 1025,9 10 0,0
13.04.2019 17:00:00 6,9 2,8 5 3 SE 1026,1 10 0,0
13.04.2019 16:00:00 5,5 3,1 16 9 E 1026,6 10 0,4
13.04.2019 15:00:00 7,4 3,4 18 10 ESE 1026,5 10 0,0
13.04.2019 14:00:00 6,4 1,0 13 7 SE 1027,2 10 0,0
13.04.2019 13:00:00 7,3 0,7 16 9 ESE 1027,0 10 0,0
13.04.2019 12:00:00 9,0 -0,7 16 9 NE 1026,8 10 0,0
13.04.2019 11:00:00 8,3 0,4 15 8 E 1027,1 10 0,0
13.04.2019 10:00:00 6,3 1,2 5 3 - 1027,5 10 0,0
13.04.2019 09:00:00 4,8 0,6 15 8 NNW 1027,3 10 0,0
13.04.2019 08:00:00 4,7 0,3 21 11 NNE 1027,0 - 0,0
13.04.2019 07:00:00 3,5 -0,5 21 11 NNE 1026,7 - 0,0
13.04.2019 06:00:00 3,4 0,3 18 10 NNE 1026,3 - 0,0
13.04.2019 05:00:00 4,8 1,4 18 10 NNE 1026,5 - 0,0
13.04.2019 04:00:00 5,4 1,8 16 9 NNE 1026,4 - 0,0
13.04.2019 03:00:00 5,5 1,6 15 8 NNE 1026,6 - 0,0
13.04.2019 02:00:00 4,2 0,0 13 7 NNE 1026,6 - 0,0
13.04.2019 01:00:00 5,5 0,8 9 5 NE 1026,5 - 0,0
13.04.2019 00:00:00 4,5 0,1 11 6 NE 1026,6 - 0,0

tt = temperature
td = dewpoint
ff = wind speed
dd = wind direction
ppp = reduced air pressure
vv = visibility
rr = precipitation

Next stations